Lapse_Rate
5.6 6.5 6.7 6.7 6.4 6.6 6.3 5.9 5.9 6.0 5.7 5.7 5.5 5.4 5.4 5.1 4.3 3.7 4.3 5.1 4.9 5.0 5.8 6.4 6.2 6.1 6.2 5.8 6.0 5.6 5.2 4.9 4.6 4.5 4.7 4.9 4.7 4.6 4.7 4.8 5.2 5.3 4.9 5.0 4.3 4.5 5.3 6.0 6.1 6.5 6.4 6.1 5.9 5.7
5.8 6.6 6.5 6.8 6.3 6.4 6.3 6.1 6.2 5.7 5.5 5.3 5.3 5.1 5.1 5.0 4.5 3.6 3.8 4.7 4.7 4.8 5.9 6.5 6.3 6.0 5.9 5.7 5.8 5.8 5.8 5.5 5.0 4.7 4.5 4.6 4.6 4.9 4.9 4.8 5.1 5.1 5.6 5.5 5.5 5.8 5.9 6.1 6.4 6.4 6.2 5.9 5.7 5.6
6.0 6.4 6.1 6.1 6.3 6.1 5.9 5.8 5.6 5.3 5.3 5.2 5.2 5.0 4.8 4.8 3.7 3.3 4.3 4.7 4.6 4.9 5.7 6.1 6.0 5.9 5.9 5.6 5.6 5.4 5.5 5.4 5.2 5.3 5.0 4.6 4.7 5.1 5.0 4.9 5.2 5.3 5.5 4.9 5.2 6.1 6.4 6.3 6.2 5.9 5.8 5.6 5.5 5.5
6.0 6.0 6.0 6.0 5.8 5.9 5.7 5.7 5.4 5.2 5.1 5.3 5.2 5.2 4.9 3.7 3.2 3.3 3.9 4.2 4.3 5.0 5.5 5.7 5.8 5.7 5.6 5.6 5.4 5.5 5.4 5.3 5.0 5.0 4.9 4.7 4.9 5.1 5.5 5.6 5.5 5.6 5.4 5.4 5.5 5.7 5.9 6.1 6.0 5.8 5.6 5.4 5.4 5.2
5.9 5.9 5.7 6.0 5.7 5.9 5.7 5.0 5.3 5.3 4.9 5.1 5.2 4.8 3.8 3.6 3.8 3.4 3.7 4.1 4.4 5.0 5.3 5.7 5.9 5.8 5.7 5.5 5.4 5.3 5.2 5.2 5.1 4.9 4.8 4.7 4.9 5.2 5.3 5.3 5.3 5.5 5.5 5.2 5.4 5.8 5.8 6.0 5.7 5.4 5.2 5.2 4.9 4.8
5.8 5.9 5.4 5.9 5.7 5.9 5.4 5.1 4.8 4.8 4.9 5.0 4.7 3.7 3.3 3.1 3.2 3.6 3.8 3.9 4.3 4.7 5.2 5.2 5.5 5.5 5.5 5.2 5.4 5.5 5.3 5.4 5.5 5.6 5.3 5.1 5.0 5.0 4.8 5.2 5.7 5.6 5.5 5.4 5.3 5.5 5.6 5.5 5.4 5.3 5.1 5.0 4.8 4.8
6.0 6.2 5.8 6.1 6.1 5.5 4.7 4.7 4.5 4.9 4.9 4.5 3.1 3.2 2.8 3.2 3.5 3.5 3.7 4.1 4.1 4.3 4.8 5.2 5.1 5.0 4.8 5.0 5.2 5.3 5.3 5.7 5.5 5.4 5.4 5.5 5.2 5.1 5.0 5.4 5.4 5.3 5.3 5.5 5.5 5.5 5.3 5.1 4.9 4.8 4.7 4.7 4.8 4.6
5.8 6.1 6.0 6.1 5.6 4.8 4.6 4.7 4.8 4.7 4.4 3.3 2.9 2.9 2.9 3.4 3.2 3.5 3.6 3.9 4.1 4.4 4.7 4.6 4.1 4.3 4.3 4.7 4.9 4.9 4.9 4.8 4.6 4.9 5.1 5.1 5.0 4.9 4.8 5.3 5.4 5.5 5.5 5.6 5.7 5.3 4.9 4.7 4.6 4.5 4.6 4.5 4.3 4.2
5.9 5.8 5.6 5.3 4.7 4.7 4.7 4.7 4.6 4.5 3.9 2.7 2.9 2.7 2.9 2.9 2.8 3.2 3.3 3.6 3.9 4.2 4.2 4.2 4.7 4.9 4.7 4.7 4.9 4.8 4.6 4.8 4.5 4.5 4.5 4.6 4.8 4.4 5.1 5.3 5.2 5.1 5.3 5.5 5.0 4.7 4.7 4.5 4.6 4.5 4.5 4.5 4.5 4.6
5.6 5.5 5.2 4.9 4.7 4.7 4.8 4.5 4.4 4.0 3.0 2.5 2.7 2.9 2.6 2.8 3.0 3.1 3.1 3.2 3.2 3.5 4.1 4.4 4.4 4.9 5.3 5.4 5.4 5.1 4.7 4.4 4.2 4.6 4.4 4.3 4.4 4.5 5.0 4.8 4.9 5.3 5.3 4.7 4.6 4.5 4.5 4.6 4.6 4.6 4.6 4.6 4.7 4.6
6.0 5.1 4.7 4.4 4.5 4.6 4.7 4.4 3.8 3.3 2.8 3.0 2.5 2.2 2.5 2.7 2.8 2.7 2.6 2.7 2.9 3.1 3.6 4.1 4.7 4.9 4.9 4.8 4.9 4.4 3.8 4.0 4.3 4.4 4.2 4.3 4.8 4.5 4.4 4.7 4.9 4.6 4.3 4.3 4.2 4.1 4.2 4.2 4.2 4.4 4.5 4.5 4.4 4.3
5.1 4.9 4.6 4.4 4.5 4.6 4.2 3.8 3.3 2.8 2.6 2.5 2.6 2.6 2.7 2.4 2.7 2.9 2.9 3.2 3.1 3.4 3.9 4.2 4.5 4.2 4.0 3.9 3.6 3.8 3.6 4.2 4.1 4.4 4.1 4.3 4.9 4.8 4.6 4.6 4.0 3.9 3.9 3.9 4.0 4.1 4.1 4.1 4.1 4.1 4.1 4.0 4.0 4.0
4.7 4.5 4.4 4.4 4.5 4.1 3.7 3.1 3.0 3.0 2.9 2.7 2.7 2.5 2.6 2.7 2.7 2.7 2.4 2.2 2.7 3.6 4.3 4.1 4.0 3.9 3.8 4.0 3.6 3.9 4.2 4.1 4.0 3.9 3.9 4.5 5.3 5.5 4.8 4.1 4.0 3.9 3.8 3.9 3.9 3.8 3.9 3.9 4.0 4.1 4.1 4.1 3.9 3.9
4.4 4.4 4.5 4.3 4.0 3.8 3.5 3.1 3.1 2.7 2.9 2.8 2.9 2.8 3.0 3.1 3.2 3.4 4.0 4.6 4.7 4.4 4.3 4.0 4.1 3.5 3.9 4.0 4.1 4.1 3.8 3.9 3.8 3.8 4.8 5.7 5.0 4.3 4.3 4.0 3.9 4.0 4.0 4.0 3.9 3.9 4.0 4.2 4.4 4.4 4.1 3.9 3.7 3.6
4.5 4.5 4.2 4.0 3.8 3.4 2.9 3.0 3.1 3.2 3.1 3.0 3.1 3.5 3.4 3.6 3.8 4.0 3.8 4.2 4.4 4.5 4.4 3.7 3.4 4.0 4.1 4.2 4.2 4.2 4.1 3.9 4.2 5.1 5.6 5.1 4.7 4.3 4.0 4.0 4.0 3.9 3.9 3.9 3.9 4.2 4.4 4.3 4.0 3.9 4.0 3.8 3.7 3.7
4.5 4.0 3.6 3.2 3.0 3.1 3.1 2.9 2.8 2.8 3.0 3.5 3.7 3.8 3.9 4.1 4.0 4.0 4.0 4.1 4.5 4.5 4.0 3.5 3.7 3.8 4.1 4.4 4.5 4.5 4.5 5.1 5.4 5.3 5.1 4.8 4.4 4.1 3.9 3.8 3.9 4.0 4.1 4.1 4.2 4.3 4.0 3.8 3.9 4.0 3.9 3.7 3.6 3.2
3.9 3.4 3.3 3.1 3.1 3.1 2.8 2.9 2.9 3.0 3.5 4.0 3.8 4.1 4.3 4.2 4.4 4.1 4.1 4.3 4.2 3.8 3.6 3.8 4.2 4.3 4.4 4.6 4.8 5.1 5.2 5.1 5.1 5.2 4.7 4.3 4.1 4.0 3.9 3.8 3.9 4.0 4.0 4.0 3.9 3.7 4.0 4.0 3.8 3.7 3.6 3.4 3.1 2.9
3.6 2.9 3.1 3.1 3.0 2.6 2.7 2.9 3.2 3.4 4.0 4.0 3.9 4.0 3.8 4.2 4.3 4.4 4.3 4.3 4.3 4.1 4.1 4.3 4.6 4.7 4.9 4.9 5.3 5.3 5.1 4.9 4.7 4.5 4.4 4.1 3.9 3.9 3.8 3.9 4.1 4.0 3.8 3.7 3.9 4.1 4.0 4.0 3.9 3.4 3.1 2.9 2.8 2.9
3.4 3.3 3.3 3.2 3.1 2.9 2.9 3.3 4.0 3.4 3.2 3.5 3.7 3.6 3.8 4.2 3.8 4.0 4.0 4.1 4.2 4.2 4.3 4.5 4.8 5.0 5.1 5.2 5.3 5.3 5.0 4.6 4.6 4.3 4.1 3.9 3.9 3.9 4.0 4.0 3.9 3.9 4.0 3.9 3.9 4.1 4.0 3.7 3.2 3.0 2.7 2.7 2.9 3.4
3.3 3.1 3.1 3.1 3.0 3.3 3.5 3.3 3.9 3.3 2.8 3.0 3.3 3.3 3.8 3.9 3.8 3.8 3.9 3.9 3.8 3.8 3.9 4.4 4.8 4.9 5.0 5.0 4.9 4.6 4.5 4.4 4.4 4.3 4.1 4.1 4.1 4.1 4.0 3.9 3.9 3.9 4.0 3.9 3.9 4.0 3.7 3.5 3.4 3.1 3.2 3.3 3.5 4.1
3.2 3.0 2.9 2.9 3.1 3.6 3.7 3.8 3.8 2.9 2.8 2.8 2.8 3.1 3.3 3.2 3.2 3.2 3.4 3.7 3.7 4.0 4.2 4.5 4.6 4.7 4.7 4.7 4.7 4.5 4.6 4.5 4.4 4.3 4.4 4.3 4.1 4.0 3.9 3.9 4.0 4.0 4.0 4.0 4.0 3.8 3.6 3.3 3.2 3.4 3.4 3.8 4.2 4.7
3.2 3.0 3.1 2.9 3.3 3.7 3.6 3.8 3.6 3.6 3.4 3.1 2.9 3.0 3.2 3.2 3.3 3.5 3.6 3.8 4.1 4.2 4.3 4.5 4.6 4.7 4.7 4.7 4.7 4.5 4.5 4.5 4.5 4.4 4.2 4.1 4.0 4.0 3.8 3.8 3.9 4.2 4.1 3.8 3.7 3.6 3.5 3.6 3.7 3.9 4.1 4.4 4.7 5.1
3.2 3.3 3.2 3.3 3.6 3.4 3.1 3.6 3.5 3.4 2.9 2.9 3.0 3.0 3.1 3.4 3.6 3.7 3.9 4.3 4.3 4.2 4.3 4.5 4.5 4.5 4.5 4.6 4.7 4.6 4.6 4.5 4.3 4.2 4.0 4.0 4.0 3.9 3.9 4.0 4.0 3.9 3.9 3.8 3.7 3.9 3.9 4.0 4.2 4.3 4.5 4.7 5.0 5.4
2.9 2.7 2.8 2.9 3.4 3.4 3.0 3.1 3.4 3.5 3.1 2.9 2.9 3.2 3.5 3.8 3.8 3.7 4.0 4.2 4.2 4.2 4.4 4.5 4.5 4.5 4.5 4.6 4.5 4.6 4.6 4.4 4.2 4.0 4.0 4.1 4.3 4.3 4.0 4.0 4.0 3.9 3.8 3.9 4.1 4.1 4.3 4.5 4.7 5.0 5.2 5.3 5.6 6.0
2.8 3.1 3.1 3.5 3.7 3.4 3.2 3.4 3.5 3.7 3.6 3.4 3.2 3.4 3.5 3.6 3.7 3.9 4.2 4.4 4.4 4.5 4.6 4.6 4.6 4.5 4.6 4.6 4.5 4.5 4.2 4.0 4.0 4.0 4.3 4.4 4.5 4.4 4.2 4.0 4.0 3.9 4.1 4.2 4.5 4.7 4.9 5.0 5.3 5.5 5.8 5.8 6.2 6.4
3.0 3.1 3.3 3.6 3.8 3.6 3.7 3.5 3.7 4.3 3.9 3.6 3.5 3.7 3.7 3.9 4.1 4.4 4.5 4.5 4.5 4.6 4.6 4.4 4.4 4.4 4.4 4.3 4.3 4.3 4.4 4.4 4.4 4.4 4.6 4.6 4.4 4.2 4.1 4.1 4.2 4.4 4.7 4.8 4.8 4.9 5.1 5.4 5.6 5.7 5.8 5.9 6.4 6.4
3.6 3.7 4.1 4.4 4.6 4.6 4.4 3.9 4.0 4.0 3.8 3.8 4.0 4.1 4.0 4.0 4.3 4.7 4.7 4.6 4.5 4.5 4.5 4.5 4.5 4.5 4.5 4.5 4.6 4.6 4.6 4.6 4.6 4.6 4.5 4.3 4.2 4.2 4.3 4.5 4.8 5.0 5.0 5.1 5.1 5.3 5.5 5.6 5.5 5.7 5.9 6.1 6.4 6.5
4.4 4.4 4.4 4.3 4.1 4.1 4.4 3.9 3.8 3.8 4.2 4.4 4.2 4.1 4.1 4.4 4.7 4.6 4.6 4.6 4.6 4.6 4.5 4.6 4.6 4.7 4.7 4.8 4.9 5.0 5.0 4.9 4.7 4.5 4.4 4.3 4.4 4.6 4.8 4.9 5.0 5.1 5.2 5.4 5.6 5.7 5.9 5.8 5.9 6.0 6.0 6.2 6.5 6.5
4.3 3.9 3.8 3.9 4.1 4.1 4.3 4.5 4.6 4.4 4.4 4.3 4.5 4.3 4.4 4.6 4.5 4.5 4.5 4.5 4.6 4.7 4.8 4.8 4.8 4.9 5.0 5.1 5.2 5.2 5.1 4.8 4.6 4.4 4.5 4.7 4.8 4.8 4.9 5.1 5.3 5.5 5.8 6.1 6.3 6.4 6.4 6.3 6.2 6.2 6.2 6.4 6.4 6.4
4.4 4.2 4.1 4.2 4.5 4.5 4.5 4.4 4.5 4.6 4.7 4.5 4.6 4.5 4.5 4.5 4.5 4.5 4.6 4.7 4.9 5.0 5.1 5.2 5.4 5.4 5.4 5.3 5.1 4.9 4.7 4.6 4.6 4.7 4.9 4.9 5.0 5.0 5.2 5.6 6.0 6.3 6.7 6.9 7.1 7.0 6.8 6.6 6.5 6.4 6.3 6.3 6.1 6.0
4.6 4.2 4.3 4.3 4.4 4.3 4.4 4.4 4.3 4.2 4.2 4.4 4.5 4.7 4.9 4.9 4.8 4.9 5.0 5.1 5.2 5.3 5.2 5.2 5.2 5.2 5.2 5.0 4.8 4.8 5.0 5.1 5.2 5.1 5.1 5.0 5.0 5.3 5.7 6.1 6.5 6.9 7.2 7.5 7.5 7.2 6.9 6.8 6.7 6.6 6.5 6.4 6.2 6.2
4.5 4.3 4.5 4.7 4.4 4.2 4.1 4.1 4.4 4.6 4.8 4.8 4.9 5.0 5.0 5.0 5.2 5.2 5.1 5.1 5.2 5.3 5.3 5.4 5.2 5.1 5.3 5.5 5.7 5.6 5.5 5.4 5.2 5.0 4.9 5.0 5.2 5.6 5.9 6.3 6.8 7.3 7.6 7.9 7.6 7.3 7.0 6.8 6.7 6.5 6.3 6.2 6.1 6.2
4.5 4.5 4.8 4.9 4.6 4.4 4.5 4.7 4.7 4.6 4.7 4.8 4.9 4.9 5.0 5.1 5.1 5.0 5.2 5.2 5.3 5.3 5.4 5.5 5.7 6.0 6.0 6.0 5.8 5.5 5.2 4.9 4.7 4.7 4.9 5.0 5.3 5.7 6.2 6.8 7.3 7.7 8.0 8.0 7.7 7.3 7.0 6.7 6.5 6.3 6.2 6.1 6.1 6.1
Wind_Speed
18 17 11 27 34 36 37 40 45 46 49 46 43 35 35 26 16 4 1 5 4 3 2 1 1 4 4 3 5 6 4 3 3 4 3 3 3 5 4 4 5 5 5 3 3 3 7 2 1 5 4 4 6 5
17 16 6 31 33 34 38 42 44 44 45 46 42 35 30 24 16 4 4 3 5 5 3 0 2 1 2 3 7 3 4 4 5 4 1 3 2 2 5 3 3 3 6 5 7 5 2 3 1 4 3 6 4 5
15 15 12 32 34 34 38 42 44 45 44 42 41 35 31 30 18 4 3 3 4 3 3 5 4 6 6 2 2 5 2 5 3 2 3 2 3 3 4 4 3 2 4 3 3 2 4 5 5 5 4 5 5 5
18 13 30 36 37 36 40 42 43 44 44 43 39 36 31 26 15 6 3 0 4 4 4 3 6 4 9 5 5 4 9 6 6 3 3 2 3 2 3 3 3 3 5 5 3 4 5 4 4 5 5 5 4 5
14 29 36 37 38 38 41 43 43 43 40 39 35 32 28 22 18 17 7 3 3 5 4 2 3 9 10 9 13 11 9 6 3 3 3 1 1 3 1 3 1 1 3 4 4 10 4 4 4 3 4 2 3 7
26 35 37 38 37 40 43 43 45 42 38 38 37 34 35 34 18 5 4 4 8 2 4 3 2 6 7 11 14 11 5 4 3 3 2 1 1 3 3 2 2 3 2 2 4 5 8 8 6 4 7 6 6 6
32 37 39 39 39 42 45 45 45 40 38 37 34 29 25 23 9 5 4 3 2 3 4 3 2 4 4 5 4 4 5 3 3 2 2 2 2 3 2 3 4 6 10 11 12 11 6 3 4 6 7 5 5 4
37 39 40 39 41 44 46 47 44 40 36 37 36 37 37 30 13 4 5 6 7 5 4 4 1 2 4 3 3 3 2 3 5 2 1 2 2 2 2 7 8 8 10 9 8 8 7 7 6 5 3 1 3 4
39 40 41 41 44 46 48 49 40 37 38 41 38 32 12 6 3 1 3 10 13 4 4 3 4 3 2 2 2 3 2 3 2 2 1 2 1 1 4 12 10 10 5 8 9 9 9 9 6 6 6 8 6 4
41 41 41 45 47 49 49 49 41 40 42 41 18 5 3 1 2 4 7 4 5 3 3 3 2 3 3 1 2 2 2 1 1 1 2 3 1 3 7 7 7 8 9 9 10 6 5 6 6 6 6 5 5 5
42 42 44 49 50 47 47 48 45 45 36 6 3 3 1 3 4 4 3 3 2 3 2 3 3 5 0 3 3 1 2 1 2 3 3 1 2 2 8 10 10 12 13 12 10 7 7 7 5 4 4 5 5 6
44 43 47 50 48 47 47 47 46 15 3 9 10 6 3 4 3 5 2 1 3 6 2 4 4 4 2 3 3 2 2 2 3 3 3 3 3 9 11 12 10 10 11 11 9 8 6 6 5 4 3 5 5 6
44 46 48 49 48 46 44 35 36 47 36 6 5 4 3 2 3 8 7 2 4 5 4 5 4 4 3 3 3 3 3 3 3 2 2 2 9 9 10 10 9 8 9 8 7 6 6 4 5 3 5 6 6 7
47 47 47 48 46 44 45 48 34 17 6 4 4 6 4 4 5 4 5 5 3 6 12 4 3 3 2 3 2 4 2 4 2 3 5 4 11 9 7 5 9 6 7 7 6 5 4 5 5 6 6 5 5 7
47 46 46 41 45 46 42 25 15 6 3 3 3 4 3 2 2 3 3 4 5 9 6 4 4 3 2 3 0 4 3 3 5 4 3 7 10 10 8 7 7 6 4 5 3 2 4 5 5 6 7 6 7 6
48 41 27 44 41 37 25 14 4 3 3 3 4 3 2 5 2 3 7 8 2 4 3 3 4 3 2 4 3 4 6 5 3 4 7 9 9 8 8 7 6 5 4 2 2 2 3 4 4 6 7 6 7 6
37 11 40 43 35 23 17 5 4 5 4 3 3 3 3 5 3 3 6 3 1 3 3 3 4 2 3 3 3 2 4 3 6 8 6 10 9 9 7 6 5 4 3 3 3 3 3 4 3 3 6 6 7 9
19 28 41 33 21 8 3 4 4 4 6 4 4 3 3 3 3 3 2 2 4 3 2 2 4 3 4 4 3 3 2 3 6 7 6 8 7 6 5 6 4 2 2 3 3 3 3 4 5 4 6 6 6 8
24 24 31 25 11 5 4 4 4 4 5 2 2 2 4 3 3 2 3 5 4 3 4 3 4 2 2 2 4 7 7 8 8 4 4 6 6 6 6 4 1 1 3 2 3 3 3 5 4 4 4 4 5 7
32 31 30 21 9 3 5 3 3 5 4 2 3 4 3 3 2 2 6 4 3 2 4 3 1 2 3 3 6 8 7 7 7 5 3 1 2 4 4 2 1 2 3 4 3 3 2 3 4 3 3 4 5 9
15 8 22 10 4 6 4 3 4 3 3 3 2 3 3 3 3 4 3 3 4 2 2 1 1 2 6 6 6 7 6 5 4 5 4 2 1 2 0 0 1 2 1 1 2 4 3 3 4 4 4 6 6 7
4 10 3 5 4 4 4 4 4 3 3 3 3 3 3 2 2 3 2 4 2 2 1 2 2 7 9 7 3 5 6 7 6 4 5 5 2 1 0 1 1 1 2 2 2 2 3 3 4 6 6 7 7 7
9 5 4 5 6 5 1 2 4 3 4 2 2 3 3 2 1 1 2 1 1 1 2 3 5 6 8 4 7 6 5 7 3 3 3 2 1 2 1 1 2 2 2 2 1 1 2 5 5 5 7 7 8 8
10 5 5 4 5 2 2 4 3 3 3 3 3 3 2 0 1 3 2 2 2 1 3 5 6 4 4 5 3 2 2 3 3 2 1 3 1 1 2 1 1 2 1 1 2 2 3 4 6 6 6 7 9 8
7 6 5 5 3 5 5 3 3 4 3 2 4 2 2 2 3 2 2 2 1 1 2 2 4 4 4 1 1 1 2 3 3 3 3 2 2 2 2 2 2 2 1 2 3 3 4 3 3 5 8 8 9 11
7 4 4 4 1 5 4 4 3 4 4 3 1 0 2 3 3 2 3 4 3 3 3 4 4 2 1 1 2 1 2 2 3 2 2 3 3 3 2 2 1 2 1 1 1 3 5 5 5 8 8 10 10 4
4 1 1 0 3 4 4 4 2 5 4 4 2 2 3 4 2 3 2 2 3 3 4 4 4 4 4 2 1 1 2 3 3 2 1 2 1 1 3 3 3 3 2 2 2 2 4 7 8 8 9 8 3 2
3 2 4 2 4 3 5 4 3 3 3 2 3 3 6 7 4 3 3 1 2 5 4 3 2 3 4 3 3 3 3 3 5 5 5 4 5 5 5 4 4 3 4 5 4 3 3 5 6 8 4 3 2 4
3 1 4 6 5 5 4 3 2 2 2 3 4 3 3 2 2 2 1 2 3 6 4 4 3 2 3 3 3 2 2 4 5 3 2 3 3 3 2 1 2 5 7 6 11 10 8 6 5 1 2 2 2 2
2 2 4 4 5 4 3 1 1 2 2 3 3 5 3 3 2 1 3 3 4 3 3 3 3 2 1 2 1 1 1 2 3 4 4 4 4 2 2 1 2 3 6 4 3 5 9 4 5 4 4 4 3 3
2 3 5 4 4 2 3 2 2 4 4 5 4 5 2 1 3 3 4 3 4 4 4 3 1 3 3 3 3 3 2 2 3 3 4 3 3 3 2 3 1 1 3 3 3 3 2 2 2 2 3 4 4 3
3 4 4 4 3 3 4 4 2 4 4 4 4 3 4 4 2 3 0 2 2 1 3 2 3 4 5 3 2 2 3 3 4 5 7 3 3 6 5 2 2 1 2 3 3 3 1 1 1 1 1 3 4 4
4 4 4 4 4 4 3 4 6 3 5 4 4 1 0 3 3 3 2 2 3 3 4 4 4 3 4 5 5 3 6 7 7 9 8 7 7 6 4 3 3 1 1 2 3 2 2 1 0 1 2 2 4 4
Wind_Direction
204 219 236 170 160 157 157 159 157 160 160 160 159 153 158 152 129 101 138 54 107 107 24 241 4 140 100 119 135 181 87 339 49 71 121 204 135 209 120 157 169 160 151 192 91 91 273 9 23 180 158 67 124 137
203 203 211 158 157 156 156 154 153 151 153 158 162 157 164 162 161 156 83 49 89 83 138 219 165 131 247 187 127 11 150 146 171 93 157 115 122 118 149 205 136 195 185 177 175 211 312 337 152 88 112 125 139 131
199 204 188 153 151 151 151 152 151 150 151 152 151 158 169 177 177 151 112 153 68 93 59 45 349 324 12 347 187 115 302 147 121 155 150 155 134 137 160 218 133 238 156 136 119 22 49 53 64 76 95 116 142 155
186 223 167 154 149 147 147 148 146 145 149 152 157 161 163 169 176 148 112 120 86 109 97 312 341 8 321 359 58 93 120 87 103 78 91 120 130 189 180 155 145 197 145 126 77 87 87 36 74 121 119 128 152 181
204 171 155 151 147 146 147 145 143 142 144 150 151 155 155 152 150 115 103 45 106 118 139 151 322 357 11 56 64 68 93 96 85 65 67 149 134 108 33 69 180 305 178 167 208 171 127 141 158 130 106 64 26 96
163 152 147 146 143 142 141 139 140 141 148 148 147 142 150 158 143 78 52 358 14 91 99 82 275 0 353 43 55 52 50 63 78 114 145 118 31 101 102 163 62 29 61 188 146 116 113 122 91 62 93 92 88 93
149 143 142 141 139 137 134 135 137 141 142 141 132 128 117 96 71 76 156 171 355 71 88 92 51 338 338 30 31 32 32 52 80 114 64 124 43 73 101 146 134 94 96 94 103 100 71 84 112 104 109 107 100 112
143 139 138 136 136 134 135 133 136 139 133 128 114 98 92 94 98 34 354 47 92 88 73 105 78 30 14 36 54 358 51 29 14 114 47 87 32 59 88 131 123 112 100 85 75 69 103 116 93 81 93 86 55 32
138 137 135 133 130 132 136 138 138 136 128 118 103 86 52 39 65 195 267 62 63 99 111 100 134 164 31 67 79 35 53 53 305 76 54 74 334 88 160 144 144 146 124 126 91 87 82 81 77 54 55 50 53 20
134 134 134 131 131 131 137 144 143 135 122 115 103 62 55 331 120 64 16 31 19 350 48 94 132 117 105 94 49 78 24 99 85 270 69 75 98 344 131 121 111 114 120 121 101 81 73 64 61 46 39 24 11 349
130 132 132 132 133 137 139 143 141 129 120 94 79 87 199 37 49 40 48 63 360 16 49 125 124 125 260 114 129 212 157 133 123 218 131 158 146 93 93 94 94 94 90 83 93 95 87 96 80 46 19 7 343 324
131 130 132 134 138 139 141 140 136 125 93 114 102 108 72 57 54 78 165 138 197 189 146 120 131 125 134 114 109 200 111 104 196 140 103 161 136 118 116 109 100 97 98 95 94 95 85 71 48 29 351 328 311 300
130 131 134 139 141 139 136 124 111 119 109 85 63 65 98 126 114 175 183 191 146 173 162 150 129 126 82 61 68 107 109 186 109 59 200 139 133 127 119 110 96 94 93 92 80 75 64 38 11 332 306 302 305 297
130 134 136 137 136 128 121 125 126 110 82 81 119 133 181 171 214 191 177 151 166 134 137 120 89 112 135 87 136 107 139 120 94 172 207 141 142 133 117 108 108 99 90 88 85 59 23 357 324 315 310 296 284 301
135 134 134 127 124 129 131 116 94 53 81 96 101 123 173 134 60 108 129 100 94 122 119 100 69 87 63 105 171 109 112 197 203 203 153 146 133 127 123 117 106 98 86 68 44 350 314 321 318 295 303 310 307 305
134 128 129 129 128 121 121 111 81 84 57 72 52 85 81 89 23 65 103 117 61 111 89 62 102 93 118 130 119 191 160 204 200 146 139 132 127 126 123 108 110 110 93 59 2 320 290 306 291 284 302 302 305 301
124 130 131 136 137 101 72 77 55 54 72 54 41 17 79 72 83 87 121 103 163 72 97 103 84 134 107 99 147 195 188 187 138 127 125 131 128 124 118 113 104 95 59 19 338 311 282 277 300 325 321 309 308 308
122 133 136 129 107 73 45 44 78 69 61 26 66 348 43 51 81 48 47 34 79 95 84 120 120 101 140 149 191 169 119 92 111 124 122 116 113 118 116 116 110 69 10 295 279 274 271 303 314 304 298 299 304 310
125 125 123 113 95 88 77 38 46 77 54 28 355 19 56 62 28 38 59 47 71 91 95 46 74 118 168 135 126 122 129 134 131 124 101 115 127 126 118 105 92 335 294 276 310 289 284 300 276 278 281 293 298 309
91 88 89 68 64 76 68 41 52 77 60 10 9 24 67 49 8 19 50 31 51 59 44 48 163 199 146 118 129 129 123 126 122 101 73 46 109 118 123 145 193 285 301 309 312 319 321 310 299 289 289 289 304 311
81 41 46 43 42 58 81 66 50 92 107 72 358 51 49 20 32 24 26 354 55 44 47 16 9 39 86 87 91 107 115 117 122 139 146 133 228 154 132 2 15 320 307 309 294 302 312 285 287 294 290 299 297 297
75 68 73 35 71 53 68 14 108 118 75 121 61 59 59 41 6 12 329 48 60 241 155 125 106 103 99 102 98 105 120 105 101 94 81 106 100 62 321 239 32 326 294 263 271 278 293 297 320 322 314 302 303 303
101 56 47 44 72 62 56 40 72 43 94 109 61 68 30 49 354 345 61 105 221 314 81 83 70 90 110 98 97 90 109 120 120 146 153 137 156 173 162 155 181 191 308 318 352 320 307 318 311 312 311 315 314 310
39 56 54 59 66 111 34 35 66 81 75 67 77 79 32 164 4 51 74 333 297 4 66 108 117 84 49 67 91 155 171 116 99 77 141 126 133 261 163 189 42 106 93 293 299 308 306 299 304 315 306 304 311 307
69 360 74 28 13 73 69 35 33 64 92 110 84 20 308 51 70 60 147 248 187 130 129 114 100 110 137 168 334 314 241 132 144 151 241 184 138 37 4 21 79 101 323 22 331 299 299 291 299 301 308 306 304 308
73 307 97 163 207 109 163 111 142 138 106 70 115 124 60 83 69 214 228 193 188 164 167 156 149 104 14 168 148 144 204 153 114 116 263 174 167 166 190 165 257 269 331 146 278 299 318 314 306 309 308 309 308 312
84 315 352 53 117 108 82 65 92 87 91 127 184 74 79 83 193 259 274 218 143 194 172 161 153 154 166 175 217 181 145 149 151 172 111 93 79 142 141 159 207 237 339 339 327 266 292 307 314 306 301 308 17 11
149 105 114 287 60 50 99 74 95 133 164 147 92 97 128 161 196 224 204 256 139 104 97 93 103 135 138 162 162 128 74 85 84 81 80 54 47 55 64 74 85 61 354 337 310 296 278 281 293 298 329 21 14 26
56 4 84 48 50 49 50 113 163 220 161 112 115 148 171 218 215 121 20 89 88 98 93 96 27 44 62 60 54 53 115 142 127 141 237 264 326 285 14 98 28 17 10 350 331 315 293 282 288 153 39 4 34 70
20 58 87 58 65 58 358 173 175 255 30 110 111 107 58 27 351 304 90 74 86 117 155 153 143 140 165 146 198 347 176 159 161 153 181 222 226 202 178 82 358 343 351 356 330 318 335 5 6 18 24 19 19 8
80 73 63 51 77 33 18 314 12 60 36 50 13 87 107 280 360 26 54 71 100 113 120 135 180 217 209 205 177 143 257 257 163 168 138 139 146 162 178 197 228 337 353 344 332 318 302 5 25 15 15 4 349 354
44 87 114 95 112 313 37 57 53 55 357 45 0 35 15 45 48 300 308 101 102 155 223 184 199 243 217 222 205 236 179 149 166 175 156 150 169 175 171 182 202 254 0 350 344 340 19 99 78 36 325 320 317 318
63 57 57 82 37 35 349 79 28 38 27 33 6 23 158 147 185 253 306 232 174 192 210 216 216 219 188 175 188 193 187 172 171 165 166 168 166 166 176 206 202 184 78 12 351 351 353 55 118 297 300 304 304 305